Change the Weather History Date:

Wednesday, September 4, 2013

  Actual Average Record
Temperature  
Mean Temperature 85 °F 84 °F  
Max Temperature 88 °F 89 °F 94 °F (1951)
Min Temperature 81 °F 79 °F 70 °F (1958)
Degree Days  
Heating Degree Days 0 0  
Month to date heating degree days 0 0  
Since 1 July heating degree days 0 0  
Cooling Degree Days 20 19  
Month to date cooling degree days 77 76  
Year to date cooling degree days 3397 3265  
Growing Degree Days 34 (Base 50)    
Moisture  
Dew Point 76 °F    
Average Humidity 80    
Maximum Humidity 91    
Minimum Humidity 68    
Precipitation  
Precipitation T in 0.21 in 3.62 in (1945)
Month to date precipitation 1.28 0.86  
Year to date precipitation 36.79 24.53  
Snow  
Snow 0.00 in - - ()
Month to date snowfall 0.0  
Since 1 July snowfall 0.0  
Since 1 September snowfall 0.0  
Snow Depth 0.00 in    
Sea Level Pressure  
Sea Level Pressure 30.00 in    
Wind  
Wind Speed 10 mph (East)    
Max Wind Speed 16 mph    
Max Gust Speed 20 mph    
Visibility 10 miles    
Events Rain    
T = Trace of Precipitation, MM = Missing Value Source: NWS Daily Summary

Daily Weather History Graph

Daily Weather History Graph

Search for Another Location

Airport or City:

Trip Planner

Search our weather history database for the weather conditions in past years. The results will help you decide how hot, cold, wet, or windy it might be!

Date:

Astronomy

Sep. 04, 2013 Rise Set
Actual Time 7:09 AM EDT 7:42 PM EDT
Civil Twilight 6:46 AM EDT 8:05 PM EDT
Nautical Twilight 6:19 AM EDT 8:32 PM EDT
Astronomical Twilight 5:52 AM EDT 8:59 PM EDT
Moon 6:20 AM EDT (9/4) 7:04 PM EDT (9/4)
Length of Visible Light 13h 18m
Length of Day
12h 32m
Waning Crescent, 1% of the Moon is Illuminated
Sep 4
Waning Crescent
Sep 5
New
Sep 12
First Quarter
Sep 19
Full
Sep 26
Last Quarter

Hourly Weather History & Observations

Time (EDT) Temp. Heat Index Dew Point Humidity Pressure Visibility Wind Dir Wind Speed Gust Speed Precip Events Conditions
12:53 AM 81.0 °F 87.3 °F 75.9 °F 85% 29.97 in 10.0 mi NE 3.5 mph - N/A   Clear
1:53 AM 81.0 °F 87.9 °F 77.0 °F 88% 29.96 in 10.0 mi ENE 4.6 mph - N/A   Mostly Cloudy
2:17 AM 82.4 °F 90.9 °F 77.0 °F 84% 29.95 in 10.0 mi ESE 10.4 mph - N/A   Scattered Clouds
2:53 AM 81.0 °F 87.3 °F 75.9 °F 85% 29.95 in 10.0 mi ESE 8.1 mph - N/A   Clear
3:53 AM 82.0 °F 87.9 °F 73.9 °F 76% 29.94 in 10.0 mi ESE 10.4 mph - N/A   Clear
4:53 AM 82.0 °F 88.6 °F 75.0 °F 79% 29.94 in 10.0 mi ESE 9.2 mph - N/A   Clear
5:53 AM 82.0 °F 88.6 °F 75.0 °F 79% 29.96 in 10.0 mi ESE 10.4 mph - N/A   Partly Cloudy
6:53 AM 82.0 °F 88.6 °F 75.0 °F 79% 29.97 in 10.0 mi East 10.4 mph - N/A   Clear
7:53 AM 82.9 °F 90.8 °F 75.9 °F 79% 29.99 in 10.0 mi East 10.4 mph - N/A   Partly Cloudy
8:53 AM 84.9 °F 94.1 °F 75.9 °F 74% 30.01 in 10.0 mi ESE 10.4 mph - N/A   Clear
9:53 AM 84.0 °F 94.8 °F 78.1 °F 82% 30.03 in 6.0 mi ESE 6.9 mph - 0.00 in Rain Light Rain
10:53 AM 86.0 °F 96.9 °F 77.0 °F 74% 30.04 in 10.0 mi East 13.8 mph - 0.00 in   Clear
11:53 AM 86.0 °F 96.9 °F 77.0 °F 74% 30.04 in 10.0 mi ESE 13.8 mph - N/A   Clear
12:53 PM 87.1 °F 99.8 °F 78.1 °F 74% 30.02 in 10.0 mi ESE 9.2 mph - N/A   Clear
1:53 PM 88.0 °F 100.2 °F 77.0 °F 70% 30.01 in 10.0 mi East 12.7 mph - N/A   Clear
2:53 PM 88.0 °F 100.2 °F 77.0 °F 70% 30.01 in 10.0 mi East 9.2 mph - N/A   Clear
3:53 PM 88.0 °F 100.2 °F 77.0 °F 70% 30.01 in 10.0 mi East 10.4 mph - N/A   Clear
4:53 PM 87.1 °F 97.3 °F 75.9 °F 69% 30.00 in 10.0 mi ESE 10.4 mph - N/A   Clear
5:53 PM 87.1 °F 97.3 °F 75.9 °F 69% 30.00 in 10.0 mi East 10.4 mph - N/A   Clear
6:53 PM 84.9 °F 93.3 °F 75.0 °F 72% 29.99 in 10.0 mi East 9.2 mph - N/A   Scattered Clouds
7:53 PM 84.0 °F 92.6 °F 75.9 °F 76% 29.99 in 10.0 mi East 6.9 mph - N/A   Clear
8:53 PM 84.0 °F 92.6 °F 75.9 °F 76% 30.01 in 10.0 mi East 10.4 mph - N/A   Partly Cloudy
9:53 PM 84.0 °F 92.6 °F 75.9 °F 76% 30.03 in 10.0 mi East 8.1 mph - N/A   Scattered Clouds
10:53 PM 84.0 °F 92.6 °F 75.9 °F 76% 30.04 in 10.0 mi ENE 8.1 mph - N/A   Partly Cloudy
11:53 PM 82.9 °F 91.8 °F 77.0 °F 82% 30.04 in 10.0 mi ENE 9.2 mph - N/A   Clear